Leesburg, VA

3:41 AM EST on December 15, 2017 (GMT -0500)
Leesburg Executive

Weather History for KJYO - May, 2013

Change the Weather History Date:

Sunday, May 26, 2013

  Actual Average (KIAD) Record (KIAD)
Temperature  
Mean Temperature 58 °F -  
Max Temperature 71 °F 74 °F 92 °F (2007)
Min Temperature 44 °F 53 °F 38 °F (1967)
Degree Days  
Heating Degree Days 8    
Growing Degree Days 8 (Base 50)    
Moisture  
Dew Point 40 °F    
Average Humidity 50    
Maximum Humidity 76    
Minimum Humidity 29    
Precipitation  
Precipitation 0.00 in - - ()
Sea Level Pressure  
Sea Level Pressure 30.20 in    
Wind  
Wind Speed 8 mph (NW)    
Max Wind Speed 18 mph    
Max Gust Speed 24 mph    
Visibility 10 miles    
Events      
Averages and records for this station are not official NWS values.
T = Trace of Precipitation, MM = Missing Value Source: NWS Daily Summary

Daily Weather History Graph

Daily Weather History Graph

Search for Another Location

Airport or City:

Trip Planner

Search our weather history database for the weather conditions in past years. The results will help you decide how hot, cold, wet, or windy it might be!

Date:

Astronomy

May. 26, 2013 Rise Set
Actual Time 5:49 AM EDT 8:26 PM EDT
Civil Twilight 5:17 AM EDT 8:57 PM EDT
Nautical Twilight 4:39 AM EDT 9:36 PM EDT
Astronomical Twilight 3:55 AM EDT 10:19 PM EDT
Moon 10:11 PM EDT (5/26) 7:15 AM EDT (5/26)
Length of Visible Light 15h 39m
Length of Day
14h 36m
Waning Gibbous, 97% of the Moon is Illuminated
May 26
Waning Gibbous
May 31
Last Quarter
Jun 8
New
Jun 16
First Quarter
Jun 23
Full

Hourly Weather History & Observations

Time (EDT) Temp. Windchill Dew Point Humidity Pressure Visibility Wind Dir Wind Speed Gust Speed Precip Events Conditions
12:15 AM 53.6 °F - 35.6 °F 51% 30.18 in 10.0 mi NNW 12.7 mph - N/A   Clear
12:35 AM 53.6 °F - 37.4 °F 54% 30.19 in 10.0 mi NW 9.2 mph 17.3 mph N/A   Clear
12:55 AM 51.8 °F - 37.4 °F 58% 30.20 in 10.0 mi NW 8.1 mph - N/A   Clear
1:15 AM 51.8 °F - 37.4 °F 58% 30.19 in 10.0 mi NW 8.1 mph - N/A   Clear
1:35 AM 51.8 °F - 37.4 °F 58% 30.19 in 10.0 mi NW 4.6 mph - N/A   Clear
1:55 AM 51.8 °F - 37.4 °F 58% 30.19 in 10.0 mi West 3.5 mph - N/A   Clear
2:15 AM 50.0 °F - 37.4 °F 62% 30.19 in 10.0 mi West 5.8 mph - N/A   Clear
2:35 AM 46.4 °F 42.9 °F 37.4 °F 71% 30.19 in 10.0 mi WNW 6.9 mph - N/A   Clear
2:55 AM 48.2 °F - 37.4 °F 66% 30.19 in 10.0 mi NW 5.8 mph - N/A   Clear
3:15 AM 48.2 °F - 37.4 °F 66% 30.19 in 10.0 mi West 6.9 mph - N/A   Clear
3:35 AM 46.4 °F 42.4 °F 37.4 °F 71% 30.19 in 10.0 mi WNW 8.1 mph - N/A   Clear
3:55 AM 48.2 °F - 37.4 °F 66% 30.19 in 10.0 mi West 5.8 mph - N/A   Clear
4:15 AM 46.4 °F 43.5 °F 37.4 °F 71% 30.20 in 10.0 mi WNW 5.8 mph - N/A   Clear
4:35 AM 46.4 °F - 37.4 °F 71% 30.19 in 10.0 mi North - - N/A   Clear
4:55 AM 44.6 °F - 37.4 °F 76% 30.20 in 10.0 mi North - - N/A   Clear
5:15 AM 46.4 °F 42.4 °F 37.4 °F 71% 30.20 in 10.0 mi NW 8.1 mph - N/A   Clear
5:35 AM 46.4 °F 42.4 °F 37.4 °F 71% 30.20 in 10.0 mi NW 8.1 mph - N/A   Clear
5:55 AM 48.2 °F - 37.4 °F 66% 30.21 in 10.0 mi WNW 6.9 mph - N/A   Clear
6:15 AM 50.0 °F - 37.4 °F 62% 30.21 in 10.0 mi West 6.9 mph - N/A   Clear
6:35 AM 50.0 °F - 37.4 °F 62% 30.22 in 10.0 mi WNW 4.6 mph - N/A   Clear
6:55 AM 51.8 °F - 39.2 °F 62% 30.23 in 10.0 mi WNW 6.9 mph - N/A   Clear
7:15 AM 53.6 °F - 37.4 °F 54% 30.23 in 10.0 mi NNW 6.9 mph - N/A   Clear
7:35 AM 53.6 °F - 37.4 °F 54% 30.23 in 10.0 mi North 4.6 mph - N/A   Clear
7:55 AM 53.6 °F - 37.4 °F 54% 30.23 in 10.0 mi Calm Calm - N/A   Clear
8:15 AM 55.4 °F - 37.4 °F 51% 30.24 in 10.0 mi Calm Calm - N/A   Clear
8:35 AM 55.4 °F - 37.4 °F 51% 30.24 in 10.0 mi Calm Calm - N/A   Clear
8:55 AM 57.2 °F - 41.0 °F 55% 30.24 in 10.0 mi Calm Calm - N/A   Clear
9:15 AM 59.0 °F - 41.0 °F 51% 30.24 in 10.0 mi Calm Calm - N/A   Clear
9:35 AM 59.0 °F - 41.0 °F 51% 30.24 in 10.0 mi NNW 9.2 mph 17.3 mph N/A   Clear
9:55 AM 60.8 °F - 39.2 °F 45% 30.24 in 10.0 mi North 13.8 mph 19.6 mph N/A   Clear
10:15 AM 60.8 °F - 37.4 °F 42% 30.24 in 10.0 mi North 13.8 mph 23.0 mph N/A   Clear
10:35 AM 60.8 °F - 39.2 °F 45% 30.23 in 10.0 mi NW 13.8 mph 18.4 mph N/A   Clear
10:55 AM 62.6 °F - 41.0 °F 45% 30.23 in 10.0 mi NNW 11.5 mph 16.1 mph N/A   Clear
11:15 AM 62.6 °F - 39.2 °F 42% 30.23 in 10.0 mi NW 5.8 mph - N/A   Clear
11:35 AM 62.6 °F - 41.0 °F 45% 30.23 in 10.0 mi NW 10.4 mph 16.1 mph N/A   Clear
11:55 AM 64.4 °F - 41.0 °F 42% 30.22 in 10.0 mi WNW 8.1 mph - N/A   Clear
12:15 PM 64.4 °F - 39.2 °F 40% 30.22 in 10.0 mi NNW 5.8 mph - N/A   Clear
12:35 PM 64.4 °F - 39.2 °F 40% 30.22 in 10.0 mi NNW 11.5 mph 18.4 mph N/A   Clear
12:55 PM 66.2 °F - 41.0 °F 40% 30.21 in 10.0 mi NNW 10.4 mph 19.6 mph N/A   Clear
1:15 PM 68.0 °F - 39.2 °F 35% 30.20 in 10.0 mi NNW 17.3 mph 21.9 mph N/A   Clear
1:35 PM 68.0 °F - 41.0 °F 37% 30.19 in 10.0 mi NNW 13.8 mph 21.9 mph N/A   Clear
1:55 PM 68.0 °F - 41.0 °F 37% 30.18 in 10.0 mi NW 10.4 mph 20.7 mph N/A   Clear
2:15 PM 68.0 °F - 41.0 °F 37% 30.17 in 10.0 mi NW 8.1 mph 19.6 mph N/A   Clear
2:35 PM 69.8 °F - 41.0 °F 35% 30.16 in 10.0 mi West 11.5 mph 21.9 mph N/A   Clear
2:55 PM 69.8 °F - 41.0 °F 35% 30.16 in 10.0 mi WNW 15.0 mph 19.6 mph N/A   Clear
3:15 PM 71.6 °F - 41.0 °F 33% 30.15 in 10.0 mi NNW 13.8 mph 19.6 mph N/A   Clear
3:35 PM 71.6 °F - 39.2 °F 31% 30.15 in 10.0 mi NNW 17.3 mph 24.2 mph N/A   Clear
3:55 PM 71.6 °F - 39.2 °F 31% 30.15 in 10.0 mi NW 10.4 mph 19.6 mph N/A   Clear
4:15 PM 71.6 °F - 41.0 °F 33% 30.15 in 10.0 mi NNW 15.0 mph - N/A   Clear
4:35 PM 71.6 °F - 37.4 °F 29% 30.14 in 10.0 mi North 10.4 mph 20.7 mph N/A   Clear
4:55 PM 71.6 °F - 37.4 °F 29% 30.14 in 10.0 mi NNW 18.4 mph 24.2 mph N/A   Clear
5:15 PM 71.6 °F - 41.0 °F 33% 30.14 in 10.0 mi NW 10.4 mph 18.4 mph N/A   Clear
5:35 PM 71.6 °F - 37.4 °F 29% 30.14 in 10.0 mi NW 16.1 mph 20.7 mph N/A   Clear
5:55 PM 71.6 °F - 39.2 °F 31% 30.14 in 10.0 mi North - - N/A   Clear
6:15 PM 71.6 °F - 37.4 °F 29% 30.14 in 10.0 mi North 13.8 mph - N/A   Clear
6:35 PM 71.6 °F - 41.0 °F 33% 30.15 in 10.0 mi North 10.4 mph - N/A   Clear
6:55 PM 71.6 °F - 39.2 °F 31% 30.15 in 10.0 mi North 11.5 mph 16.1 mph N/A   Clear
7:15 PM 69.8 °F - 39.2 °F 33% 30.16 in 10.0 mi North 5.8 mph - N/A   Clear
7:35 PM 69.8 °F - 39.2 °F 33% 30.16 in 10.0 mi North 9.2 mph - N/A   Clear
7:55 PM 68.0 °F - 41.0 °F 37% 30.16 in 10.0 mi North 5.8 mph - N/A   Clear
8:15 PM 66.2 °F - 41.0 °F 40% 30.18 in 10.0 mi NNW 6.9 mph - N/A   Clear
8:35 PM 64.4 °F - 41.0 °F 42% 30.18 in 10.0 mi Calm Calm - N/A   Clear
8:55 PM 62.6 °F - 42.8 °F 48% 30.19 in 10.0 mi NNW 3.5 mph - N/A   Clear
9:15 PM 60.8 °F - 42.8 °F 52% 30.20 in 10.0 mi Calm Calm - N/A   Clear
9:35 PM 57.2 °F - 44.6 °F 63% 30.21 in 10.0 mi Calm Calm - N/A   Clear
9:55 PM 55.4 °F - 44.6 °F 67% 30.21 in 10.0 mi West 4.6 mph - N/A   Clear
10:15 PM 55.4 °F - 44.6 °F 67% 30.22 in 10.0 mi North - - N/A   Clear
10:35 PM 55.4 °F - 42.8 °F 63% 30.23 in 10.0 mi Calm Calm - N/A   Clear
10:55 PM 53.6 °F - 44.6 °F 72% 30.23 in 10.0 mi West 3.5 mph - N/A   Clear
11:15 PM 51.8 °F - 44.6 °F 76% 30.23 in 10.0 mi Calm Calm - N/A   Clear
11:35 PM 51.8 °F - 44.6 °F 76% 30.24 in 10.0 mi West 3.5 mph - N/A   Clear
11:55 PM 51.8 °F - 44.6 °F 76% 30.24 in 10.0 mi NW 5.8 mph - N/A   Clear